Find Starlink 11713

NORAD ID: 64070 Int'l Des: 2025-107 Owner: SPXS Country: US Constellation: starlink operational
又名: STARLINK-11713 [DTC] celestrak
LEOCIRCULAR

当前视图

正在加载3D地球...

About Starlink 11713

Starlink 11713 (NORAD 64070) is a starlink constellation satellite (v2 mini d2c) launched May 21, 2025 by SPXS of US. It operates in LEO, CIRCULAR orbit with a mass of 960.00 kg.

即将过境

Passes for default location (London). Set your location on the main map for personalized predictions.

高度历史

Loading altitude history...

两行轨道根数

1 64070U 25107G 26265.39973763 .00145459 00000-0 11180-2 0 9991
2 64070 43.0002 352.6895 0001715 190.1279 169.9554 15.70825657 78234
Epoch: Sep 22, 2026 • Age: 15 hours

当前状态

高度 357.5 km
远地点 / 近地点 N/A
速度 7.70 km/s
星下点 30.15°N, 9.38°E
发射日期 May 21, 2025
运行时间 1.3 years
类型 internet

技术详情

分类 Payload
质量 960.00 kg
干质量 910.00 kg
长度 0.30 m
跨度 29.00 m
形状 ? Box + pan
制造商 SPXS
平台类型 Starlink V2MD
阶段状态 In Orbit
所有者/国家 SPXS/US

Most Searched